QXE2053 KSEA-KMFR

Flight info

Callsign QXE2053
Flight time 1h 1m
Altitude 35000
Route HAROB6 FEPOT SAMIE
Aircraft E175/M-SDE3GILORVW/S

Departure

Time 2026-05-04 03:58
Airport Seattle–Tacoma International Airport (KSEA)

Arrival

Time 2026-05-04 04:59
Airport Rogue Valley International-Medford Airport (KMFR)
Time Latitude Longitude Altitude Speed Heading
2026-05-04 03:45 47.44691 -122.30472 402 ft 0 kts 139°
2026-05-04 03:51 47.44704 -122.30491 402 ft 4 kts 126°
2026-05-04 03:51 47.44718 -122.30525 402 ft 4 kts 126°
2026-05-04 03:51 47.44733 -122.30540 398 ft 0 kts 180°
2026-05-04 03:54 47.44721 -122.30544 399 ft 3 kts 203°
2026-05-04 03:54 47.44672 -122.30586 400 ft 13 kts 219°
2026-05-04 03:55 47.44592 -122.30635 397 ft 13 kts 173°
2026-05-04 03:55 47.44481 -122.30643 394 ft 16 kts 181°
2026-05-04 03:55 47.44344 -122.30633 391 ft 23 kts 180°
2026-05-04 03:55 47.44168 -122.30635 385 ft 28 kts 181°
2026-05-04 03:56 47.43966 -122.30639 380 ft 31 kts 181°
2026-05-04 03:56 47.43750 -122.30639 374 ft 30 kts 181°
2026-05-04 03:56 47.43594 -122.30600 369 ft 17 kts 139°
2026-05-04 03:56 47.43479 -122.30560 366 ft 19 kts 182°
2026-05-04 03:57 47.43333 -122.30560 361 ft 23 kts 181°
2026-05-04 03:57 47.43191 -122.30626 359 ft 21 kts 232°
2026-05-04 03:57 47.43211 -122.30798 360 ft 15 kts 332°
2026-05-04 03:57 47.43358 -122.30803 362 ft 49 kts 360°
2026-05-04 03:58 47.44913 -122.30790 779 ft 147 kts 358°
2026-05-04 03:58 47.46011 -122.30823 1475 ft 162 kts 359°
2026-05-04 03:58 47.47131 -122.30848 2353 ft 167 kts
2026-05-04 03:59 47.48335 -122.30819 3085 ft 176 kts
2026-05-04 03:59 47.49642 -122.30709 3671 ft 199 kts
2026-05-04 03:59 47.51094 -122.30703 4339 ft 222 kts 358°
2026-05-04 03:59 47.52720 -122.30815 4966 ft 245 kts 357°
2026-05-04 04:00 47.54490 -122.30957 5657 ft 263 kts 354°
2026-05-04 04:00 47.56266 -122.31821 6399 ft 276 kts 328°
2026-05-04 04:00 47.57866 -122.33417 7332 ft 279 kts 326°
2026-05-04 04:00 47.59476 -122.35055 8247 ft 282 kts 323°
2026-05-04 04:01 47.60715 -122.37299 9076 ft 288 kts 295°
2026-05-04 04:01 47.61220 -122.40170 9922 ft 289 kts 282°
2026-05-04 04:01 47.61590 -122.43160 10391 ft 303 kts 281°
2026-05-04 04:01 47.61618 -122.46355 10751 ft 320 kts 259°
2026-05-04 04:02 47.60667 -122.49394 11397 ft 327 kts 233°
2026-05-04 04:02 47.59161 -122.51933 12123 ft 330 kts 228°
2026-05-04 04:02 47.57594 -122.54385 12844 ft 334 kts 227°
2026-05-04 04:02 47.55961 -122.56925 13634 ft 338 kts 227°
2026-05-04 04:03 47.54353 -122.59427 14332 ft 342 kts 227°
2026-05-04 04:03 47.52685 -122.62020 15067 ft 345 kts 227°
2026-05-04 04:03 47.51039 -122.64569 15783 ft 349 kts 227°
2026-05-04 04:03 47.49348 -122.67170 16481 ft 353 kts 227°
2026-05-04 04:04 47.47632 -122.69790 17173 ft 357 kts 226°
2026-05-04 04:04 47.45891 -122.72429 17873 ft 360 kts 226°
2026-05-04 04:04 47.44126 -122.75091 18510 ft 365 kts 226°
2026-05-04 04:04 47.42332 -122.77783 19097 ft 370 kts 226°
2026-05-04 04:05 47.40509 -122.80502 19708 ft 376 kts 226°
2026-05-04 04:05 47.38653 -122.83261 20334 ft 381 kts 226°
2026-05-04 04:05 47.36769 -122.86048 20962 ft 386 kts 226°
2026-05-04 04:05 47.34853 -122.88862 21538 ft 393 kts 225°
2026-05-04 04:06 47.32898 -122.91713 22089 ft 398 kts 225°
2026-05-04 04:06 47.30912 -122.94598 22655 ft 403 kts 225°
2026-05-04 04:06 47.28918 -122.97480 23207 ft 408 kts 225°
2026-05-04 04:06 47.26875 -123.00419 23715 ft 413 kts 225°
2026-05-04 04:07 47.24806 -123.03367 24226 ft 415 kts 222°
2026-05-04 04:07 47.22548 -123.06055 24712 ft 419 kts 217°
2026-05-04 04:07 47.20210 -123.08627 25237 ft 422 kts 216°
2026-05-04 04:07 47.17838 -123.11210 25751 ft 426 kts 216°
2026-05-04 04:08 47.15452 -123.13816 26220 ft 431 kts 216°
2026-05-04 04:08 47.13035 -123.16461 26715 ft 434 kts 217°
2026-05-04 04:08 47.10604 -123.19123 27191 ft 437 kts 216°
2026-05-04 04:08 47.07925 -123.21233 27570 ft 439 kts 197°
2026-05-04 04:09 47.04933 -123.21915 28017 ft 436 kts 178°
2026-05-04 04:09 47.01899 -123.21821 28446 ft 438 kts 174°
2026-05-04 04:09 46.98842 -123.21624 28847 ft 442 kts 174°
2026-05-04 04:09 46.95755 -123.21447 29246 ft 445 kts 175°
2026-05-04 04:10 46.92650 -123.21291 29642 ft 449 kts 175°
2026-05-04 04:10 46.90578 -123.21208 29916 ft 451 kts 175°
2026-05-04 04:10 46.87435 -123.21088 30257 ft 454 kts 175°
2026-05-04 04:10 46.84268 -123.20956 30591 ft 457 kts 175°
2026-05-04 04:11 46.81079 -123.20831 30882 ft 460 kts 174°
2026-05-04 04:11 46.77869 -123.20700 31180 ft 463 kts 174°
2026-05-04 04:11 46.74642 -123.20570 31550 ft 464 kts 174°
2026-05-04 04:11 46.71409 -123.20440 31817 ft 466 kts 174°
2026-05-04 04:12 46.68153 -123.20304 32082 ft 469 kts 174°
2026-05-04 04:12 46.64892 -123.20169 32410 ft 469 kts 174°
2026-05-04 04:12 46.61631 -123.20039 32759 ft 469 kts 174°
2026-05-04 04:12 46.58368 -123.19909 33080 ft 469 kts 173°
2026-05-04 04:13 46.55103 -123.19777 33425 ft 469 kts 173°
2026-05-04 04:13 46.51840 -123.19644 33796 ft 468 kts 173°
2026-05-04 04:13 46.48597 -123.19527 34183 ft 465 kts 174°
2026-05-04 04:13 46.45360 -123.19413 34375 ft 467 kts 173°
2026-05-04 04:14 46.42113 -123.19240 34630 ft 467 kts 173°
2026-05-04 04:14 46.38860 -123.19127 34951 ft 467 kts 174°
2026-05-04 04:14 46.32254 -123.18820 34948 ft 482 kts 173°
2026-05-04 04:15 46.25490 -123.18470 34823 ft 486 kts 173°
2026-05-04 04:15 46.18712 -123.18162 34855 ft 488 kts 174°
2026-05-04 04:16 46.11915 -123.17853 34851 ft 489 kts 174°
2026-05-04 04:16 46.05123 -123.17540 34847 ft 489 kts 174°
2026-05-04 04:17 45.98326 -123.17225 34841 ft 488 kts 173°
2026-05-04 04:17 45.91535 -123.16914 34824 ft 489 kts 174°
2026-05-04 04:18 45.84743 -123.16599 34825 ft 489 kts 174°
2026-05-04 04:18 45.77976 -123.16287 34811 ft 484 kts 174°
2026-05-04 04:19 45.71234 -123.15982 34812 ft 485 kts 174°
2026-05-04 04:19 45.64490 -123.15674 34834 ft 485 kts 174°
2026-05-04 04:20 45.57747 -123.15366 34817 ft 483 kts 174°
2026-05-04 04:20 45.51045 -123.15062 34826 ft 482 kts 174°
2026-05-04 04:21 45.44339 -123.14761 34824 ft 482 kts 174°
2026-05-04 04:21 45.37634 -123.14456 34817 ft 482 kts 174°
2026-05-04 04:22 45.30955 -123.14151 34814 ft 478 kts 174°
2026-05-04 04:22 45.24294 -123.13853 34815 ft 479 kts 174°
2026-05-04 04:23 45.17632 -123.13555 34815 ft 479 kts 174°
2026-05-04 04:23 45.10988 -123.13258 34800 ft 475 kts 174°
2026-05-04 04:24 45.04392 -123.12964 34817 ft 474 kts 174°
2026-05-04 04:24 44.97794 -123.12670 34815 ft 475 kts 174°
2026-05-04 04:25 44.91194 -123.12375 34822 ft 475 kts 174°
2026-05-04 04:25 44.84610 -123.12083 34822 ft 473 kts 174°
2026-05-04 04:26 44.78025 -123.11790 34815 ft 473 kts 174°
2026-05-04 04:26 44.71485 -123.11501 34811 ft 473 kts 174°
2026-05-04 04:27 44.64913 -123.11211 34835 ft 471 kts 175°
2026-05-04 04:27 44.58370 -123.10924 34850 ft 470 kts 174°
2026-05-04 04:28 44.51828 -123.10636 34847 ft 470 kts 174°
2026-05-04 04:28 44.45286 -123.10350 34845 ft 469 kts 175°
2026-05-04 04:29 44.38764 -123.10065 34847 ft 469 kts 175°
2026-05-04 04:29 44.32243 -123.09781 34840 ft 469 kts 175°
2026-05-04 04:30 44.25717 -123.09497 34854 ft 469 kts 175°
2026-05-04 04:30 44.19203 -123.09215 34861 ft 468 kts 174°
2026-05-04 04:31 44.12686 -123.08933 34860 ft 468 kts 174°
2026-05-04 04:31 44.06177 -123.08651 34861 ft 468 kts 174°
2026-05-04 04:32 43.99670 -123.08371 34858 ft 467 kts 174°
2026-05-04 04:32 43.93174 -123.08093 34858 ft 467 kts 174°
2026-05-04 04:33 43.86663 -123.07814 34850 ft 468 kts 174°
2026-05-04 04:33 43.80157 -123.07533 34858 ft 468 kts 174°
2026-05-04 04:34 43.73649 -123.07255 34862 ft 468 kts 174°
2026-05-04 04:34 43.67144 -123.06979 34862 ft 468 kts 174°
2026-05-04 04:35 43.60638 -123.06698 34860 ft 467 kts 174°
2026-05-04 04:35 43.54122 -123.06430 34866 ft 469 kts 175°
2026-05-04 04:36 43.50869 -123.06307 34685 ft 464 kts 174°
2026-05-04 04:36 43.47679 -123.06155 34329 ft 450 kts 173°
2026-05-04 04:36 43.44588 -123.05995 33757 ft 442 kts 173°
2026-05-04 04:36 43.41537 -123.05798 33179 ft 434 kts 173°
2026-05-04 04:37 43.32708 -123.05390 31428 ft 415 kts 174°
2026-05-04 04:37 43.29843 -123.05258 30944 ft 410 kts 175°
2026-05-04 04:38 43.26940 -123.05141 30349 ft 414 kts 175°
2026-05-04 04:38 43.24045 -123.05014 29790 ft 420 kts 175°
2026-05-04 04:38 43.21112 -123.04876 29250 ft 422 kts 176°
2026-05-04 04:38 43.18201 -123.04740 28657 ft 426 kts 176°
2026-05-04 04:39 43.15247 -123.04601 28117 ft 427 kts 176°
2026-05-04 04:39 43.12234 -123.04461 27537 ft 428 kts 176°
2026-05-04 04:39 43.09309 -123.04336 26972 ft 425 kts 176°
2026-05-04 04:39 43.06370 -123.04207 26413 ft 421 kts 176°
2026-05-04 04:40 43.03460 -123.04066 25862 ft 416 kts 176°
2026-05-04 04:40 43.00576 -123.03929 25312 ft 412 kts 176°
2026-05-04 04:40 42.97726 -123.03796 24768 ft 409 kts 176°
2026-05-04 04:40 42.94897 -123.03674 24220 ft 402 kts 176°
2026-05-04 04:41 42.92148 -123.03559 23683 ft 392 kts 176°
2026-05-04 04:41 42.89407 -123.03425 23141 ft 395 kts 176°
2026-05-04 04:41 42.86673 -123.03295 22679 ft 396 kts 175°
2026-05-04 04:41 42.83906 -123.03167 22123 ft 398 kts 176°
2026-05-04 04:42 42.81164 -123.03042 21592 ft 391 kts 175°
2026-05-04 04:42 42.78468 -123.02909 21082 ft 385 kts 176°
2026-05-04 04:42 42.75813 -123.02791 20578 ft 379 kts 175°
2026-05-04 04:42 42.73184 -123.02679 20067 ft 377 kts 176°
2026-05-04 04:43 42.70570 -123.02575 19608 ft 374 kts 176°
2026-05-04 04:43 42.67983 -123.02472 19176 ft 373 kts 176°
2026-05-04 04:43 42.65430 -123.02081 18650 ft 366 kts 160°
2026-05-04 04:43 42.63268 -123.00419 18270 ft 354 kts 135°
2026-05-04 04:44 42.61843 -122.97750 17851 ft 349 kts 115°
2026-05-04 04:44 42.60769 -122.94811 17370 ft 347 kts 116°
2026-05-04 04:44 42.59563 -122.91999 16917 ft 343 kts 120°
2026-05-04 04:44 42.58230 -122.89331 16474 ft 340 kts 123°
2026-05-04 04:45 42.56850 -122.86753 16020 ft 335 kts 124°
2026-05-04 04:45 42.55460 -122.84243 15583 ft 331 kts 124°
2026-05-04 04:45 42.54077 -122.81767 15148 ft 328 kts 124°
2026-05-04 04:47 42.46365 -122.67987 12702 ft 281 kts 124°
2026-05-04 04:47 42.45182 -122.65868 12322 ft 284 kts 124°
2026-05-04 04:47 42.43985 -122.63728 11945 ft 285 kts 124°
2026-05-04 04:47 42.42789 -122.61591 11564 ft 281 kts 124°
2026-05-04 04:48 42.41637 -122.59519 11177 ft 268 kts 123°
2026-05-04 04:49 42.36984 -122.52858 9922 ft 237 kts 145°
2026-05-04 04:49 42.35537 -122.51864 9558 ft 229 kts 154°
2026-05-04 04:49 42.34067 -122.51222 9297 ft 215 kts 163°
2026-05-04 04:49 42.32608 -122.50878 9087 ft 212 kts 171°
2026-05-04 04:50 42.31138 -122.50795 8808 ft 217 kts 179°
2026-05-04 04:50 42.29610 -122.51018 8469 ft 218 kts 188°
2026-05-04 04:50 42.28180 -122.51532 8179 ft 210 kts 197°
2026-05-04 04:50 42.26862 -122.52278 7916 ft 202 kts 206°
2026-05-04 04:51 42.25652 -122.53229 7594 ft 201 kts 214°
2026-05-04 04:51 42.24575 -122.54352 7342 ft 192 kts 222°
2026-05-04 04:51 42.23653 -122.55587 7128 ft 184 kts 231°
2026-05-04 04:51 42.22877 -122.56952 6861 ft 181 kts 239°
2026-05-04 04:52 42.22251 -122.58380 6634 ft 173 kts 245°
2026-05-04 04:52 42.21730 -122.59803 6359 ft 165 kts 252°
2026-05-04 04:52 42.21374 -122.61231 6166 ft 157 kts 262°
2026-05-04 04:52 42.21171 -122.62654 5979 ft 154 kts 269°
2026-05-04 04:53 42.21075 -122.64085 5805 ft 153 kts 273°
2026-05-04 04:53 42.21074 -122.65517 5605 ft 153 kts 277°
2026-05-04 04:53 42.21174 -122.66945 5370 ft 152 kts 282°
2026-05-04 04:53 42.21376 -122.68332 5160 ft 149 kts 288°
2026-05-04 04:54 42.21679 -122.69661 5007 ft 149 kts 292°
2026-05-04 04:54 42.22081 -122.70961 4843 ft 151 kts 296°
2026-05-04 04:54 42.22572 -122.72231 4637 ft 154 kts 300°
2026-05-04 04:54 42.23113 -122.73487 4399 ft 154 kts 301°
2026-05-04 04:55 42.23630 -122.74668 4300 ft 142 kts 302°
2026-05-04 04:55 42.24145 -122.75827 4172 ft 146 kts 302°
2026-05-04 04:55 42.24493 -122.76605 4082 ft 146 kts 302°
2026-05-04 04:55 42.25020 -122.77784 3948 ft 148 kts 304°
2026-05-04 04:56 42.25621 -122.78924 3751 ft 150 kts 308°
2026-05-04 04:56 42.26289 -122.80007 3528 ft 150 kts 313°
2026-05-04 04:56 42.27035 -122.80995 3320 ft 151 kts 319°
2026-05-04 04:56 42.27862 -122.81875 3139 ft 151 kts 325°
2026-05-04 04:57 42.28748 -122.82628 2930 ft 150 kts 331°
2026-05-04 04:57 42.29681 -122.83244 2749 ft 149 kts 337°
2026-05-04 04:57 42.30640 -122.83755 2563 ft 148 kts 339°
2026-05-04 04:57 42.31608 -122.84252 2342 ft 149 kts 339°
2026-05-04 04:58 42.32562 -122.84745 2134 ft 144 kts 339°
2026-05-04 04:58 42.33479 -122.85229 1922 ft 140 kts 338°
2026-05-04 04:58 42.34384 -122.85702 1758 ft 138 kts 338°
2026-05-04 04:58 42.35276 -122.86168 1585 ft 136 kts 338°
2026-05-04 04:59 42.36144 -122.86627 1426 ft 133 kts 338°
2026-05-04 04:59 42.36973 -122.87063 1330 ft 118 kts 338°
2026-05-04 04:59 42.37562 -122.87366 1317 ft 56 kts 338°
2026-05-04 04:59 42.37881 -122.87534 1314 ft 41 kts 339°
2026-05-04 05:00 42.38056 -122.87628 1311 ft 12 kts 324°
2026-05-04 05:00 42.38067 -122.87677 1311 ft 5 kts 248°
2026-05-04 05:00 42.37998 -122.87746 1314 ft 7 kts 167°
2026-05-04 05:01 42.37932 -122.87717 1316 ft 11 kts 159°
2026-05-04 05:01 42.37854 -122.87677 1316 ft 13 kts 158°
2026-05-04 05:01 42.37757 -122.87625 1316 ft 16 kts 158°
2026-05-04 05:01 42.37648 -122.87568 1318 ft 17 kts 159°
2026-05-04 05:02 42.37526 -122.87504 1317 ft 20 kts 159°
2026-05-04 05:02 42.37392 -122.87437 1321 ft 21 kts 160°
2026-05-04 05:02 42.37250 -122.87368 1321 ft 23 kts 161°
2026-05-04 05:02 42.37112 -122.87281 1324 ft 22 kts 158°
2026-05-04 05:03 42.36967 -122.87245 1323 ft 20 kts 177°
2026-05-04 05:03 42.36889 -122.87249 1323 ft 9 kts 192°